Miscellaneous Local Product
Issued by NWS Hastings, NE

Home | Current Version | Previous Version | Graphics & Text | Print | Product List | Glossary On
Versions: 1 2 3 4 5 6 7 8 9 10 11 12 13 14 15 16 17 18 19 20 21 22 23 24 25 26 27 28 29 30 31 32 33 34 35 36 37 38 39 40 41 42 43 44 45 46 47 48 49 50
000
AXUS43 KGID 310102
MISGRI

GID CWA HOURLY WEATHER ROUNDUP
NATIONAL WEATHER SERVICE HASTINGS NE
800 PM CDT WED JUL 30 2014

NOTE: "FAIR" INDICATES FEW OR NO CLOUDS BELOW 12,000 FEET WITH NO
SIGNIFICANT WEATHER AND/OR OBSTRUCTIONS TO VISIBILITY.

...SOUTH CENTRAL NEBRASKA...

CITY           SKY/WX    TMP DP  RH WIND       PRES   REMARKS
GRAND ISLAND   MOCLDY    74  58  57 SE3       30.14S
HASTINGS       PTCLDY    74  54  49 E3        30.14S
KEARNEY        MOCLDY    75  57  53 E5        30.15R
ORD            MOCLDY    78  58  49 E3        30.12S
YORK           MOCLDY    73  59  60 NE5       30.13S
AURORA         MOCLDY    73  59  62 E3        30.13S
LEXINGTON      MOCLDY    76  59  53 CALM      30.15S
HOLDREGE       PTCLDY    75  56  51 CALM      30.15S
HEBRON         PTCLDY    75  51  42 N5        30.12S

...NEBRASKA PANHANDLE...

CITY           SKY/WX    TMP DP  RH WIND       PRES   REMARKS
CHADRON        MOSUNNY   80  48  32 W5        30.14F
ALLIANCE       PTSUNNY   76  50  40 SW8       30.20S
SCOTTSBLUFF    CLOUDY    74  56  53 SW9       30.23R
SIDNEY         CLOUDY    67  56  67 W12       30.28S

...WESTERN AND NORTH CENTRAL NEBRASKA...

CITY           SKY/WX    TMP DP  RH WIND       PRES   REMARKS
VALENTINE      PTSUNNY   81  52  36 S6        30.11S
AINSWORTH      PTCLDY    79  50  36 SE5       30.12F
ONEILL         PTCLDY    77  58  52 E5        30.12S
BROKEN BOW     MOCLDY    76  57  51 SE3       30.15S
IMPERIAL       CLOUDY    74  56  53 W5        30.20S
NORTH PLATTE   MOCLDY    77  57  50 SE3       30.16S
MCCOOK         PTCLDY    74  60  61 SW3       30.17S

...EASTERN NEBRASKA...

CITY           SKY/WX    TMP DP  RH WIND       PRES   REMARKS
NORFOLK        PTCLDY    77  54  44 CALM      30.11S
SO SIOUX CITY  CLEAR     75  55  49 E3        30.10S
TEKAMAH        CLEAR     76  59  55 E3        30.10R
ALBION         MOCLDY    74  60  62 CALM      30.12S
OMAHA EPPLEY   MOCLDY    76  54  46 NE6       30.09S
OFFUTT AFB     CLEAR     74  59  59 E2        30.09R
MILLARD        PTCLDY    77  53  42 CALM      30.09S
LINCOLN        PTCLDY    76  53  44 NE6       30.11S
NEBRASKA CITY  CLEAR     74  58  59 CALM      30.10S
BEATRICE       PTCLDY    75  55  49 NE3       30.10S
FALLS CITY     CLEAR     77  57  50 CALM      30.08S

...NORTHERN KANSAS...

CITY           SKY/WX    TMP DP  RH WIND       PRES   REMARKS
GOODLAND       CLOUDY    70  54  56 NW5       30.23F
HILL CITY      PTCLDY    80  52  37 NE6       30.15S
NORTON         CLEAR     77  48  36 CALM      30.15S
PHILLIPSBURG   CLEAR     79  52  38 NE6       30.13S
SMITH CENTER   CLEAR     73  54  49 NE6       30.13R
HAYS           CLEAR     75  52  43 NE9       30.14S
RUSSELL        PTCLDY    75  54  47 NE8       30.12R
CONCORDIA      CLEAR     75  55  49 NE5       30.11R
SALINA         CLEAR     75  56  51 SE6       30.11R
TOPEKA         PTCLDY    78  57  48 NE6       30.08S



USA.gov is the U.S. government's official web portal to all federal, state and local government web resources and services.